Wind_Speed
27 25 23 23 23 23 25 27 29 32 34 35 36 37 38 39 38 36 34 35 35 34 34 34 35 34 34 33 34 33 34 35 36 38 39 40 41 42 43 44 45 47 48
30 28 27 26 25 25 26 28 30 33 35 37 39 40 41 40 39 37 35 33 33 34 35 34 34 34 33 33 32 33 35 38 39 40 41 42 43 44 46 47 49 50 52
31 30 30 29 28 27 28 31 33 35 37 39 41 42 42 41 39 33 31 30 31 32 31 30 32 32 32 34 36 37 39 41 42 43 44 45 46 47 48 50 51 54 56
33 32 32 32 31 31 33 35 37 39 41 42 43 43 43 40 34 31 29 27 27 28 28 29 31 32 35 38 39 41 43 45 46 47 47 48 49 51 52 53 56 58 60
35 34 34 34 34 36 38 39 41 43 44 44 44 45 42 38 33 30 29 27 28 29 29 30 33 36 39 42 44 45 47 48 50 51 52 54 55 56 57 58 60 61 63
36 34 34 36 37 39 41 43 44 44 45 46 46 44 39 37 35 33 31 30 30 31 33 35 38 40 43 45 48 50 51 52 54 55 57 58 59 61 63 63 63 63 63
37 37 37 38 39 40 41 42 42 43 43 43 43 42 38 38 37 35 32 31 32 34 37 39 42 44 47 49 51 52 54 57 58 60 61 63 65 67 67 66 66 64 63
34 35 36 36 37 38 38 38 39 40 41 42 42 41 41 39 38 35 33 34 36 38 40 42 45 47 50 53 54 56 59 61 62 64 66 68 68 68 67 67 65 64 63
32 32 32 32 33 33 34 35 36 39 41 42 43 43 41 40 40 37 37 39 40 42 44 46 49 52 54 57 58 61 63 65 67 68 69 68 67 66 65 65 65 65 63
31 31 31 31 31 33 34 36 38 40 42 44 45 44 42 42 41 40 41 42 44 46 48 50 53 56 59 61 62 64 66 68 68 68 68 66 64 63 63 63 63 64 64
31 31 31 32 33 35 37 40 42 44 45 46 46 46 45 45 45 44 45 46 48 50 52 55 57 60 62 64 65 66 67 67 67 65 64 62 61 61 61 62 63 64 65
32 32 32 34 36 38 40 43 45 46 48 48 48 48 48 47 47 47 48 49 51 53 55 57 59 62 63 65 65 65 65 64 63 61 60 60 60 61 62 63 64 65 66
33 33 35 37 39 41 43 45 47 48 49 49 49 50 49 49 50 50 51 52 53 55 57 59 60 62 63 63 63 63 62 60 60 59 59 59 60 61 62 63 64 65 65
36 36 38 39 41 44 45 47 49 50 51 51 52 52 52 52 52 52 53 54 55 56 58 59 60 61 61 61 61 60 59 59 59 58 59 59 60 61 62 62 63 62 59
39 40 41 42 44 46 48 50 51 53 53 53 53 53 53 52 52 53 54 55 56 57 58 58 59 59 59 58 58 57 57 58 57 58 59 60 60 60 60 59 57 53 48
40 42 44 46 48 50 51 53 54 55 55 55 53 52 51 51 52 52 53 54 55 55 55 55 56 56 56 56 55 56 57 57 57 57 58 58 57 56 54 51 47 42 36
42 45 47 49 51 52 53 54 54 54 54 52 51 51 50 50 50 51 52 52 52 53 53 53 53 53 53 54 55 55 55 55 55 54 54 53 51 48 43 39 35 31 26
44 46 47 49 50 52 53 53 53 53 52 50 50 49 49 49 49 49 49 49 50 49 50 50 50 51 52 52 52 52 53 53 52 50 48 45 41 37 32 27 25 22 20
43 45 47 49 50 51 51 51 51 50 49 48 48 47 47 47 46 46 47 47 47 47 48 49 49 50 50 50 49 49 49 47 45 43 40 36 31 26 21 19 17 16 16
44 45 46 48 49 49 49 49 48 47 47 46 46 45 45 44 44 45 45 45 46 46 47 47 47 47 47 47 46 43 41 39 37 35 32 27 21 16 14 13 12 13 14
43 44 45 46 46 46 46 46 45 45 45 44 43 42 42 42 42 43 43 44 44 45 45 45 45 44 43 41 38 35 33 31 29 28 24 19 14 11 10 10 10 12 13
40 41 41 42 42 43 43 42 42 41 41 40 40 40 40 40 41 41 42 42 43 43 42 42 40 39 36 33 31 29 27 25 23 20 15 11 9 8 8 9 11 12 15
37 38 39 40 40 40 39 38 37 36 36 36 37 38 38 39 39 39 40 40 40 39 38 36 34 32 30 28 27 25 22 19 15 11 7 6 6 7 8 9 11 13 15
36 36 36 36 35 34 32 32 32 32 33 34 35 35 36 37 37 38 37 37 35 33 31 30 28 26 25 24 22 19 14 9 6 3 3 5 6 7 8 9 11 13 15
30 29 29 28 27 26 26 27 29 30 30 31 33 34 35 35 35 34 32 31 29 27 26 25 23 22 21 19 15 11 6 2 1 3 5 6 6 7 8 10 12 14 16
22 21 20 21 21 23 24 26 27 28 30 31 31 31 31 31 30 29 27 26 24 23 22 21 19 17 15 12 8 3 1 4 5 5 6 6 7 7 8 10 12 14 15
Wind_Direction
267 268 272 278 284 292 299 303 307 309 308 306 305 300 296 292 286 278 273 270 268 268 271 274 276 279 283 285 289 294 299 302 302 301 300 298 296 295 293 291 290 289 288
265 266 270 274 280 287 293 297 300 301 301 300 299 298 294 291 289 285 277 274 270 268 269 274 278 282 286 290 293 299 302 303 301 300 298 297 296 294 293 292 291 290 289
264 264 267 272 277 283 288 291 294 294 295 294 293 291 289 289 291 293 295 284 278 272 275 282 285 288 289 294 299 303 303 302 301 300 298 297 296 294 294 293 292 291 290
263 263 266 270 276 280 283 286 290 291 290 290 288 286 288 289 297 301 302 299 291 283 286 291 292 294 298 301 303 303 302 302 301 300 299 298 297 296 295 294 293 293 292
263 264 267 271 275 279 282 285 287 287 287 287 284 283 285 291 302 311 310 304 297 292 292 296 298 300 301 302 302 302 302 301 301 300 300 299 298 297 297 296 295 294 293
265 266 269 272 276 279 281 281 283 284 284 284 285 285 289 302 310 312 311 306 302 298 296 299 300 301 301 300 301 301 301 301 301 300 300 300 299 298 298 296 295 293 292
264 266 268 271 273 275 276 278 280 282 284 287 291 297 304 311 312 307 306 304 301 299 299 300 300 300 300 299 300 300 300 300 300 300 300 300 299 299 298 296 295 293 292
265 267 268 269 271 273 275 276 279 282 288 293 299 303 308 311 311 306 303 302 300 299 299 299 299 298 298 298 299 298 298 298 299 299 300 300 300 299 297 296 295 294 292
265 267 268 270 272 274 277 280 283 285 290 295 299 303 306 308 308 305 304 303 301 299 298 298 298 298 297 297 297 297 297 298 299 299 300 300 300 299 297 296 295 294 293
265 268 271 273 277 280 284 288 290 292 294 297 300 302 304 306 306 305 304 303 301 300 299 298 298 297 296 296 296 296 297 298 299 299 300 300 299 298 298 297 296 295 294
269 272 275 279 283 286 289 292 294 296 297 298 299 300 302 303 303 303 302 301 300 298 297 296 296 295 295 295 296 296 297 298 299 300 300 300 300 299 298 297 296 295 295
271 275 279 283 286 288 291 293 295 297 296 296 297 297 299 300 300 300 300 299 297 297 296 295 295 295 295 295 296 297 298 299 300 301 301 301 300 299 298 298 297 296 296
271 275 281 285 287 289 291 293 295 296 295 295 296 297 298 298 299 299 298 297 296 296 295 295 295 295 296 296 297 298 300 300 301 301 301 301 300 299 299 298 298 297 297
270 276 283 287 289 290 291 293 294 294 294 295 296 297 297 297 297 298 297 296 296 296 295 295 296 296 297 298 299 300 300 301 302 302 302 301 300 299 299 299 299 299 300
271 278 284 288 290 290 291 292 293 294 295 296 298 299 298 298 297 297 297 296 296 295 296 296 296 297 298 299 300 300 301 302 302 302 301 301 300 300 300 301 302 303 304
275 281 285 288 289 290 292 293 294 296 297 298 299 298 298 297 296 295 295 295 295 295 296 296 296 297 298 299 299 300 301 301 301 301 301 301 301 302 304 305 305 306 307
281 283 286 288 290 292 293 294 295 297 298 298 298 297 296 295 295 294 294 295 295 295 295 295 296 297 298 299 299 300 300 300 301 301 302 302 304 305 307 307 308 309 311
284 286 287 289 290 292 293 294 295 296 297 297 296 296 295 295 294 294 294 294 294 294 294 295 296 297 298 298 299 299 300 300 301 302 303 305 307 307 307 307 309 311 314
283 285 287 289 290 292 293 294 295 295 295 295 295 295 294 294 294 294 293 293 293 293 294 295 296 297 297 297 298 299 301 302 304 305 306 308 309 307 307 308 311 315 319
284 287 288 289 291 292 293 294 294 295 295 294 294 294 294 293 293 293 293 293 293 294 295 296 296 296 297 298 300 302 304 305 307 309 311 313 313 312 313 316 319 323 325
286 288 289 290 292 293 293 293 293 293 293 293 293 293 292 292 292 292 293 293 294 295 295 296 296 297 299 300 302 303 305 307 309 310 312 315 319 323 326 329 331 333 333
287 288 290 291 292 292 292 292 292 292 293 293 293 292 292 293 293 293 294 294 295 296 297 297 298 299 300 302 303 304 306 308 309 310 313 320 330 337 340 341 342 342 341
288 289 290 291 292 293 293 293 293 293 293 293 293 293 294 294 295 295 296 297 298 299 299 300 300 301 301 302 303 305 308 309 308 311 321 339 351 352 350 349 349 350 351
289 290 291 291 292 293 293 293 294 294 295 295 296 296 296 297 298 299 300 301 301 301 301 301 301 301 302 303 304 307 309 307 306 326 5 13 6 1 359 358 359 1 3
291 293 294 295 296 296 297 298 298 299 299 300 300 300 301 301 302 303 303 304 304 304 304 303 303 303 304 304 305 308 312 321 80 65 40 25 17 13 11 10 11 13 15
298 300 302 303 303 303 303 304 304 304 305 305 305 305 305 305 305 306 306 307 307 307 306 305 305 306 305 304 306 312 93 112 98 68 51 40 31 25 23 22 23 24 25
Height
5861 5862 5863 5863 5863 5863 5862 5861 5859 5856 5854 5851 5848 5845 5841 5837 5833 5830 5827 5825 5825 5825 5825 5824 5824 5823 5822 5821 5820 5819 5817 5815 5813 5810 5807 5805 5802 5799 5796 5794 5791 5788 5785
5855 5856 5857 5857 5858 5858 5857 5855 5854 5851 5848 5845 5842 5837 5833 5830 5826 5822 5820 5818 5817 5817 5817 5816 5816 5815 5814 5813 5811 5810 5808 5806 5804 5802 5798 5795 5793 5789 5786 5783 5779 5776 5772
5848 5850 5851 5851 5852 5851 5851 5850 5848 5845 5843 5839 5835 5830 5825 5822 5819 5815 5813 5811 5810 5810 5809 5808 5808 5807 5806 5804 5802 5800 5798 5796 5794 5791 5788 5785 5782 5778 5775 5771 5767 5763 5759
5841 5843 5844 5845 5845 5845 5844 5843 5841 5839 5836 5832 5827 5821 5817 5814 5812 5809 5807 5806 5805 5804 5802 5801 5800 5798 5797 5795 5793 5791 5789 5786 5783 5780 5777 5774 5771 5767 5763 5760 5754 5748 5744
5835 5836 5837 5838 5838 5837 5836 5835 5834 5831 5827 5823 5819 5814 5810 5806 5804 5802 5801 5801 5799 5796 5794 5794 5793 5791 5789 5786 5784 5781 5778 5775 5772 5769 5765 5761 5757 5753 5750 5746 5741 5734 5728
5828 5829 5830 5830 5830 5830 5829 5827 5825 5823 5819 5814 5809 5804 5800 5798 5797 5796 5795 5795 5793 5790 5788 5787 5785 5783 5780 5777 5774 5771 5768 5764 5760 5756 5752 5747 5743 5738 5733 5730 5725 5720 5714
5821 5822 5823 5823 5823 5822 5821 5819 5817 5815 5811 5805 5800 5795 5792 5791 5791 5790 5788 5787 5786 5784 5782 5779 5777 5774 5771 5767 5764 5760 5756 5752 5747 5743 5737 5732 5727 5721 5716 5711 5707 5703 5699
5814 5815 5815 5815 5815 5814 5813 5811 5809 5807 5803 5798 5793 5790 5789 5786 5784 5783 5781 5780 5779 5776 5773 5771 5768 5764 5760 5756 5752 5748 5744 5739 5733 5728 5722 5716 5710 5703 5697 5692 5687 5684 5681
5808 5808 5808 5808 5808 5807 5806 5804 5802 5799 5796 5792 5789 5785 5782 5780 5778 5776 5774 5772 5769 5767 5764 5760 5757 5753 5749 5745 5740 5736 5731 5725 5719 5713 5707 5700 5693 5686 5679 5673 5667 5663 5661
5802 5802 5802 5801 5801 5799 5798 5796 5793 5791 5788 5785 5781 5778 5775 5773 5770 5768 5765 5763 5760 5756 5753 5750 5746 5741 5737 5732 5727 5722 5716 5710 5704 5698 5691 5684 5677 5670 5663 5656 5649 5642 5638
5796 5796 5795 5794 5793 5791 5789 5787 5784 5782 5779 5776 5773 5770 5767 5764 5761 5758 5755 5752 5749 5745 5742 5738 5733 5728 5723 5718 5713 5707 5701 5695 5688 5682 5675 5668 5662 5654 5647 5640 5633 5625 5619
5788 5788 5787 5786 5785 5783 5781 5778 5775 5772 5769 5766 5763 5760 5757 5754 5751 5748 5744 5741 5737 5733 5728 5724 5719 5714 5709 5703 5698 5692 5686 5679 5673 5666 5659 5653 5646 5639 5632 5624 5617 5609 5601
5780 5779 5778 5777 5776 5774 5772 5769 5767 5763 5760 5757 5753 5750 5746 5743 5740 5736 5732 5728 5724 5719 5714 5710 5704 5699 5693 5688 5682 5676 5670 5664 5658 5651 5645 5638 5631 5624 5616 5609 5601 5593 5585
5770 5770 5769 5767 5766 5764 5762 5759 5756 5753 5750 5746 5742 5739 5735 5731 5727 5723 5719 5714 5710 5705 5700 5694 5689 5683 5678 5672 5666 5661 5655 5649 5643 5637 5630 5623 5616 5609 5602 5594 5585 5578 5570
5760 5759 5758 5757 5755 5753 5751 5748 5745 5741 5738 5734 5730 5726 5722 5718 5714 5709 5705 5700 5695 5690 5685 5679 5674 5669 5663 5658 5653 5647 5642 5636 5629 5623 5616 5609 5602 5595 5587 5580 5572 5564 5558
5749 5748 5747 5746 5744 5741 5738 5735 5732 5729 5725 5721 5718 5713 5709 5705 5700 5696 5691 5686 5681 5676 5671 5666 5661 5655 5650 5645 5640 5635 5629 5623 5617 5610 5602 5595 5588 5581 5573 5566 5559 5553 5547
5738 5737 5736 5734 5731 5728 5725 5722 5719 5716 5712 5708 5705 5700 5696 5692 5687 5683 5678 5673 5668 5663 5658 5653 5648 5643 5638 5633 5628 5622 5616 5610 5604 5598 5590 5583 5576 5570 5563 5557 5551 5546 5541
5727 5725 5723 5721 5718 5716 5713 5709 5706 5703 5699 5695 5691 5687 5683 5678 5674 5669 5664 5660 5655 5650 5646 5641 5636 5632 5626 5621 5615 5610 5604 5598 5592 5586 5579 5573 5567 5561 5556 5551 5546 5541 5537
5715 5714 5711 5709 5706 5703 5700 5697 5693 5689 5686 5682 5678 5674 5669 5665 5660 5656 5651 5647 5642 5638 5634 5629 5624 5619 5614 5609 5604 5598 5592 5586 5581 5575 5570 5565 5559 5554 5550 5546 5543 5539 5535
5704 5702 5700 5697 5694 5691 5688 5684 5680 5676 5673 5669 5665 5660 5656 5652 5648 5643 5639 5635 5630 5626 5622 5617 5612 5608 5602 5598 5593 5588 5582 5577 5572 5567 5562 5557 5553 5550 5546 5543 5541 5537 5534
5694 5691 5689 5686 5683 5679 5676 5672 5668 5664 5660 5656 5652 5648 5644 5639 5635 5631 5627 5623 5619 5614 5610 5606 5601 5596 5592 5587 5583 5579 5575 5570 5566 5561 5557 5553 5550 5547 5544 5542 5539 5536 5533
5684 5681 5678 5675 5672 5668 5664 5660 5656 5652 5648 5644 5640 5636 5632 5628 5623 5619 5615 5611 5607 5603 5598 5594 5590 5586 5582 5578 5575 5571 5568 5564 5561 5557 5554 5551 5549 5546 5544 5541 5539 5536 5532
5674 5671 5668 5665 5661 5657 5654 5650 5646 5642 5638 5634 5630 5625 5621 5617 5613 5608 5604 5600 5596 5592 5588 5584 5580 5577 5574 5571 5568 5565 5562 5559 5557 5554 5552 5550 5548 5546 5544 5541 5539 5535 5531
5665 5662 5659 5655 5651 5648 5644 5641 5637 5633 5628 5624 5620 5615 5611 5607 5602 5598 5594 5590 5586 5582 5579 5575 5572 5569 5566 5564 5561 5559 5557 5556 5554 5553 5552 5550 5548 5546 5544 5542 5539 5535 5532
5656 5653 5650 5647 5643 5640 5636 5633 5628 5624 5620 5615 5611 5606 5602 5597 5593 5589 5585 5581 5578 5574 5571 5568 5565 5563 5560 5558 5556 5555 5554 5554 5553 5553 5552 5550 5549 5547 5545 5543 5539 5536 5533
5650 5647 5644 5641 5637 5634 5630 5626 5621 5617 5612 5607 5603 5598 5594 5589 5585 5581 5578 5574 5571 5568 5565 5562 5559 5557 5555 5554 5553 5553 5553 5553 5553 5553 5552 5551 5550 5548 5546 5544 5541 5538 5535